This demonstration page uses our WeatherBlox Daily Observations layout. Learn more.

Left ArrowRight Arrow

39.12711, -84.51439

Hourly Observations for May 22, 2016

Temp ( °F °C ) Dew Point ( °F °C ) Humidity (%) Winds ( mph kmh ) Pressure ( in mb ) Visibility ( mi km ) Precip ( " mm )
12:25 am 00:25 Mostly Clear with Mist and Fog 50 10 50 10 100 100 Calm 30.03 1017 2 3 0.00 0.00
12:29 am 00:29 Mostly Clear with Mist and Fog 49 9.4 49 9.4 100 100 Calm 30.03 1017 3 5 0.00 0.00
12:36 am 00:36 Mostly Clear with Mist and Fog 48 9 48 9 100 100 Calm 30.03 1017 2 3 0.00 0.00
12:45 am 00:45 Mostly Cloudy with Mist and Fog 48 8.9 48 8.9 100 100 Calm 30.03 1017 1 2 0.00 0.00
12:51 am 00:51 Mostly Cloudy with Fog 48 9 48 9 100 100 Calm 30.03 1017 0 0 0.00 0.00
12:52 am 00:52 Mostly Cloudy with Fog 48 8.9 48 8.9 100 100 Calm 30.03 1017 0 0 0.00 0.00
1:06 am 01:06 Mostly Cloudy with Fog 50 10 50 10 100 100 Calm 30.03 1017 1 1 0.00 0.00
1:15 am 01:15 Mostly Cloudy with Fog 49 9.4 49 9.4 100 100 Calm 30.03 1017 0 0 0.00 0.00
1:40 am 01:40 Mostly Cloudy with Fog 46 8 46 8 100 100 Calm 30.03 1017 1 1 0.00 0.00
1:50 am 01:50 Mostly Cloudy with Fog 48 9 48 9 100 100 Calm 30.03 1017 0 0 0.00 0.00
1:53 am 01:53 Mostly Cloudy with Fog 48 8.9 48 8.9 100 100 Calm 30.03 1017 0 0 0.00 0.00
2:25 am 02:25 Mostly Cloudy with Mist and Fog 48 8.9 48 8.9 100 100 Calm 30.03 1017 1 2 0.00 0.00
2:40 am 02:40 Mostly Cloudy with Fog 48 9 48 9 100 100 Calm 30.03 1017 1 1 0.00 0.00
2:53 am 02:53 Mostly Cloudy with Mist and Fog 46 7.8 46 7.8 100 100 Calm 30.02 1017 1 1 0.00 0.00
3:53 am 03:53 Mostly Cloudy with Fog 47 8.3 47 8.3 100 100 Calm 30.02 1017 0 0 0.00 0.00
4:07 am 04:07 Mostly Cloudy with Fog 47 8.3 47 8.3 100 100 Calm 30.03 1017 1 1 0.00 0.00
4:14 am 04:14 Mostly Cloudy with Fog 46 8 46 8 100 100 Calm 30.03 1017 0 0 0.00 0.00
4:53 am 04:53 Mostly Cloudy with Fog 46 7.8 46 7.8 100 100 Calm 30.03 1017 0 0 0.00 0.00
5:53 am 05:53 Mostly Cloudy with Fog 45 7.2 45 7.2 100 100 Calm 30.04 1017 0 0 0.00 0.00
6:53 am 06:53 Mostly Cloudy with Fog 47 8.3 47 8.3 100 100 Calm 30.04 1017 5 8 0.00 0.00
7:53 am 07:53 Mostly Cloudy with Fog 49 9.4 49 9.4 100 100 Calm 30.06 1018 0 0 0.00 0.00
8:14 am 08:14 Mostly Cloudy with Mist and Fog 52 11 52 11 100 100 Calm 30.06 1018 2 2 0.00 0.00
8:28 am 08:28 Partly Cloudy with Mist and Fog 52 11 52 11 100 100 Calm 30.06 1018 6 10 0.00 0.00
8:53 am 08:53 Sunny 55 12.8 54 12.2 96 96 Calm 30.05 1018 8 13 0.00 0.00
9:53 am 09:53 Sunny 64 17.8 50 10 60 60 WNW 5 7 30.04 1017 10 16 0.00 0.00
10:53 am 10:53 Partly Cloudy 68 20 46 7.8 45 45 NW 8 13 30.03 1017 10 16 0.00 0.00
11:53 am 11:53 Sunny 72 22.2 48 8.9 43 43 NW 7 11 30.02 1017 10 16 0.00 0.00
12:53 pm 12:53 Sunny 75 23.9 47 8.3 37 37 NW 12 19 29.99 1016 10 16 0.00 0.00
1:53 pm 13:53 Mostly Sunny 76 24.4 47 8.3 36 36 NNE 12 19 29.98 1015 10 16 0.00 0.00
2:53 pm 14:53 Partly Cloudy 77 25 46 7.8 33 33 NNW 20 31 29.96 1015 10 16 0.00 0.00
3:53 pm 15:53 Partly Cloudy 77 25 46 7.8 33 33 NNW 18 30 29.95 1014 10 16 0.00 0.00
4:53 pm 16:53 Partly Cloudy 77 25 46 7.8 33 33 N 15 24 29.93 1014 10 16 0.00 0.00
5:53 pm 17:53 Partly Cloudy 76 24.4 46 7.8 35 35 N 13 20 29.93 1014 10 16 0.00 0.00
6:53 pm 18:53 Mostly Sunny 74 23.3 46 7.8 37 37 NNE 10 17 29.92 1013 10 16 0.00 0.00
7:53 pm 19:53 Sunny 72 22.2 45 7.2 38 38 NNE 9 15 29.93 1014 10 16 0.00 0.00
8:53 pm 20:53 Clear 67 19.4 45 7.2 45 45 Calm 29.94 1014 10 16 0.00 0.00
9:53 pm 21:53 Clear 60 15.6 49 9.4 67 67 NNE 3 6 29.96 1015 10 16 0.00 0.00
10:53 pm 22:53 Clear 56 13.3 52 11.1 87 87 Calm 29.98 1015 10 16 0.00 0.00
11:53 pm 23:53 Clear 54 12.2 51 10.6 90 90 Calm 30.00 1016 10 16 0.00 0.00

Powered by AerisWeather